QPF
0.00 0.00 0.00 0.00 0.00 0.00 0.00 0.00 0.00 0.00 0.00 0.00 0.00 0.00 0.00 0.00 0.00 0.00 0.00 0.00 0.00 0.00 0.00 0.00 0.00 0.00 0.00 0.00 0.00 0.00 0.00 0.00 0.00 0.00 0.00 0.00 0.00 0.00 0.00 0.00 0.00 0.00 0.00 0.00 0.00 0.00 0.00 0.00 0.00 0.00 0.00 0.00 0.00 0.00
0.00 0.00 0.00 0.00 0.00 0.00 0.00 0.00 0.00 0.00 0.00 0.00 0.00 0.00 0.00 0.00 0.00 0.00 0.00 0.00 0.00 0.00 0.00 0.00 0.00 0.00 0.00 0.00 0.00 0.00 0.00 0.00 0.00 0.00 0.00 0.00 0.00 0.00 0.00 0.00 0.00 0.00 0.00 0.00 0.00 0.00 0.00 0.00 0.00 0.00 0.00 0.00 0.00 0.00
0.00 0.00 0.00 0.00 0.00 0.00 0.00 0.00 0.00 0.00 0.00 0.00 0.00 0.00 0.00 0.00 0.00 0.00 0.00 0.00 0.00 0.00 0.00 0.00 0.00 0.00 0.00 0.00 0.00 0.00 0.00 0.00 0.00 0.00 0.00 0.00 0.00 0.00 0.00 0.00 0.00 0.00 0.00 0.00 0.00 0.00 0.00 0.00 0.00 0.00 0.00 0.00 0.00 0.00
0.00 0.00 0.00 0.00 0.00 0.00 0.00 0.00 0.00 0.00 0.00 0.00 0.00 0.00 0.00 0.00 0.00 0.00 0.00 0.00 0.00 0.00 0.00 0.00 0.00 0.00 0.00 0.00 0.00 0.00 0.00 0.00 0.00 0.00 0.00 0.00 0.00 0.00 0.00 0.00 0.00 0.00 0.00 0.00 0.00 0.00 0.00 0.00 0.00 0.00 0.00 0.00 0.00 0.00
0.00 0.00 0.00 0.00 0.00 0.00 0.00 0.00 0.00 0.00 0.00 0.00 0.00 0.00 0.00 0.00 0.00 0.00 0.00 0.00 0.00 0.00 0.00 0.00 0.00 0.00 0.00 0.00 0.00 0.00 0.00 0.00 0.00 0.00 0.00 0.00 0.00 0.00 0.00 0.00 0.00 0.00 0.00 0.00 0.00 0.00 0.00 0.00 0.00 0.00 0.00 0.00 0.00 0.00
0.00 0.00 0.00 0.00 0.00 0.00 0.00 0.00 0.00 0.00 0.00 0.00 0.00 0.00 0.00 0.00 0.00 0.00 0.00 0.00 0.00 0.00 0.00 0.00 0.00 0.00 0.00 0.00 0.00 0.00 0.00 0.00 0.00 0.00 0.00 0.00 0.00 0.00 0.00 0.00 0.00 0.00 0.00 0.00 0.00 0.00 0.00 0.00 0.00 0.00 0.00 0.00 0.00 0.00
0.00 0.00 0.00 0.00 0.00 0.00 0.00 0.00 0.00 0.00 0.00 0.00 0.00 0.00 0.00 0.00 0.00 0.00 0.00 0.00 0.00 0.00 0.00 0.00 0.00 0.00 0.00 0.00 0.00 0.00 0.00 0.00 0.00 0.00 0.00 0.00 0.00 0.00 0.00 0.00 0.00 0.00 0.00 0.00 0.00 0.00 0.00 0.00 0.00 0.00 0.00 0.00 0.00 0.00
0.00 0.00 0.00 0.00 0.00 0.00 0.00 0.00 0.00 0.00 0.00 0.00 0.00 0.00 0.00 0.00 0.00 0.00 0.00 0.00 0.00 0.00 0.00 0.00 0.00 0.00 0.00 0.00 0.00 0.00 0.00 0.00 0.00 0.00 0.00 0.00 0.00 0.00 0.00 0.00 0.00 0.00 0.00 0.00 0.00 0.00 0.00 0.00 0.00 0.00 0.00 0.00 0.00 0.00
0.00 0.00 0.00 0.00 0.00 0.00 0.00 0.00 0.00 0.00 0.00 0.00 0.00 0.00 0.00 0.00 0.00 0.00 0.00 0.00 0.00 0.00 0.00 0.00 0.00 0.00 0.00 0.00 0.00 0.00 0.00 0.00 0.00 0.00 0.00 0.00 0.00 0.00 0.00 0.00 0.00 0.00 0.00 0.00 0.00 0.00 0.00 0.00 0.00 0.00 0.00 0.00 0.00 0.00
0.00 0.00 0.00 0.00 0.00 0.00 0.00 0.00 0.00 0.00 0.00 0.00 0.00 0.00 0.00 0.00 0.00 0.00 0.00 0.00 0.00 0.00 0.00 0.00 0.00 0.00 0.00 0.00 0.00 0.00 0.00 0.00 0.00 0.00 0.00 0.00 0.00 0.00 0.00 0.00 0.00 0.00 0.00 0.00 0.00 0.00 0.00 0.00 0.00 0.00 0.00 0.00 0.00 0.00
0.00 0.00 0.00 0.00 0.00 0.00 0.00 0.00 0.00 0.00 0.00 0.00 0.00 0.00 0.00 0.00 0.00 0.00 0.00 0.00 0.00 0.00 0.00 0.00 0.00 0.00 0.00 0.00 0.00 0.00 0.00 0.00 0.00 0.00 0.00 0.00 0.00 0.00 0.00 0.00 0.00 0.00 0.00 0.00 0.00 0.00 0.00 0.00 0.00 0.00 0.00 0.00 0.00 0.00
0.00 0.00 0.00 0.00 0.00 0.00 0.00 0.00 0.00 0.00 0.00 0.00 0.00 0.00 0.00 0.00 0.00 0.00 0.00 0.00 0.00 0.00 0.00 0.00 0.00 0.00 0.00 0.00 0.00 0.00 0.00 0.00 0.00 0.00 0.00 0.00 0.00 0.00 0.00 0.00 0.00 0.00 0.00 0.00 0.00 0.00 0.00 0.00 0.00 0.00 0.00 0.00 0.00 0.00
0.00 0.00 0.00 0.00 0.00 0.00 0.00 0.00 0.00 0.00 0.00 0.00 0.00 0.00 0.00 0.00 0.00 0.00 0.00 0.00 0.00 0.00 0.00 0.00 0.00 0.00 0.00 0.00 0.00 0.00 0.00 0.00 0.00 0.00 0.00 0.00 0.00 0.00 0.00 0.00 0.00 0.00 0.00 0.00 0.00 0.00 0.00 0.00 0.00 0.00 0.00 0.00 0.00 0.00
0.00 0.00 0.00 0.00 0.00 0.00 0.00 0.00 0.00 0.00 0.00 0.00 0.00 0.00 0.00 0.00 0.00 0.00 0.00 0.00 0.00 0.00 0.01 0.02 0.03 0.00 0.00 0.00 0.00 0.00 0.00 0.00 0.00 0.00 0.00 0.00 0.00 0.00 0.00 0.00 0.00 0.00 0.00 0.00 0.00 0.00 0.00 0.00 0.00 0.00 0.00 0.00 0.00 0.00
0.00 0.00 0.00 0.00 0.00 0.00 0.00 0.00 0.00 0.00 0.00 0.00 0.00 0.00 0.00 0.00 0.00 0.00 0.00 0.00 0.00 0.00 0.00 0.00 0.00 0.00 0.00 0.00 0.00 0.00 0.00 0.00 0.00 0.00 0.00 0.00 0.00 0.00 0.00 0.00 0.00 0.00 0.00 0.00 0.00 0.00 0.00 0.00 0.00 0.00 0.00 0.00 0.00 0.00
0.00 0.00 0.00 0.00 0.00 0.00 0.00 0.00 0.00 0.00 0.00 0.00 0.00 0.00 0.00 0.00 0.00 0.00 0.00 0.00 0.00 0.00 0.00 0.00 0.00 0.00 0.00 0.00 0.00 0.00 0.00 0.00 0.00 0.00 0.00 0.00 0.00 0.00 0.00 0.00 0.00 0.00 0.00 0.00 0.00 0.00 0.00 0.00 0.00 0.00 0.00 0.00 0.00 0.00
0.00 0.00 0.00 0.00 0.00 0.00 0.00 0.00 0.00 0.00 0.00 0.00 0.00 0.00 0.00 0.00 0.00 0.00 0.00 0.00 0.00 0.00 0.00 0.00 0.00 0.00 0.00 0.00 0.00 0.00 0.00 0.00 0.00 0.00 0.00 0.00 0.00 0.00 0.00 0.00 0.00 0.00 0.00 0.00 0.00 0.00 0.00 0.00 0.00 0.00 0.00 0.00 0.00 0.00
0.00 0.00 0.00 0.00 0.00 0.00 0.00 0.00 0.00 0.00 0.00 0.00 0.00 0.00 0.00 0.00 0.00 0.00 0.00 0.00 0.00 0.00 0.00 0.00 0.00 0.00 0.00 0.00 0.00 0.00 0.00 0.00 0.00 0.00 0.00 0.00 0.00 0.00 0.00 0.00 0.00 0.00 0.00 0.00 0.00 0.00 0.00 0.00 0.00 0.00 0.00 0.00 0.00 0.00
0.00 0.00 0.00 0.00 0.00 0.00 0.00 0.00 0.00 0.00 0.00 0.00 0.00 0.00 0.00 0.00 0.00 0.00 0.00 0.00 0.00 0.00 0.00 0.00 0.00 0.00 0.00 0.00 0.00 0.00 0.00 0.00 0.00 0.00 0.00 0.00 0.00 0.00 0.00 0.00 0.00 0.00 0.00 0.00 0.00 0.00 0.00 0.00 0.00 0.00 0.00 0.00 0.00 0.00
0.00 0.00 0.00 0.00 0.00 0.00 0.00 0.00 0.00 0.00 0.00 0.00 0.00 0.00 0.00 0.00 0.00 0.00 0.00 0.00 0.00 0.00 0.00 0.00 0.00 0.00 0.00 0.00 0.00 0.00 0.00 0.00 0.00 0.00 0.00 0.00 0.00 0.00 0.00 0.00 0.00 0.00 0.00 0.00 0.00 0.00 0.00 0.00 0.00 0.00 0.00 0.00 0.00 0.00
0.00 0.00 0.00 0.00 0.00 0.00 0.00 0.00 0.00 0.00 0.00 0.00 0.00 0.00 0.00 0.00 0.00 0.00 0.00 0.00 0.00 0.00 0.00 0.00 0.00 0.00 0.00 0.00 0.00 0.00 0.00 0.00 0.00 0.00 0.00 0.00 0.00 0.00 0.00 0.00 0.00 0.00 0.00 0.00 0.00 0.00 0.00 0.00 0.00 0.00 0.00 0.00 0.00 0.00
0.00 0.00 0.00 0.00 0.00 0.00 0.00 0.00 0.00 0.00 0.00 0.00 0.00 0.00 0.00 0.00 0.00 0.00 0.00 0.00 0.00 0.00 0.00 0.00 0.00 0.00 0.00 0.00 0.00 0.00 0.00 0.00 0.00 0.00 0.00 0.00 0.00 0.00 0.00 0.00 0.00 0.00 0.00 0.00 0.00 0.00 0.00 0.00 0.00 0.00 0.00 0.00 0.00 0.00
0.00 0.00 0.00 0.00 0.00 0.01 0.00 0.00 0.00 0.00 0.00 0.00 0.00 0.00 0.00 0.00 0.00 0.00 0.00 0.00 0.00 0.00 0.00 0.00 0.00 0.00 0.00 0.00 0.00 0.00 0.00 0.00 0.00 0.00 0.00 0.00 0.00 0.00 0.00 0.00 0.00 0.00 0.00 0.00 0.00 0.00 0.00 0.00 0.00 0.00 0.00 0.00 0.00 0.00
0.00 0.00 0.00 0.00 0.00 0.00 0.00 0.00 0.00 0.00 0.00 0.00 0.00 0.01 0.00 0.00 0.00 0.00 0.00 0.00 0.00 0.00 0.00 0.00 0.00 0.00 0.00 0.00 0.00 0.00 0.00 0.00 0.00 0.00 0.00 0.00 0.00 0.00 0.00 0.00 0.00 0.00 0.00 0.00 0.00 0.00 0.00 0.00 0.00 0.00 0.00 0.00 0.00 0.00
0.00 0.00 0.00 0.00 0.00 0.01 0.01 0.00 0.00 0.00 0.00 0.00 0.01 0.01 0.00 0.00 0.00 0.00 0.00 0.00 0.00 0.00 0.00 0.00 0.00 0.00 0.00 0.00 0.00 0.00 0.00 0.00 0.00 0.00 0.00 0.00 0.00 0.00 0.00 0.00 0.00 0.00 0.00 0.00 0.00 0.00 0.00 0.00 0.00 0.00 0.00 0.00 0.00 0.00
0.00 0.00 0.00 0.00 0.00 0.00 0.00 0.01 0.01 0.01 0.01 0.01 0.02 0.03 0.02 0.00 0.00 0.00 0.00 0.00 0.00 0.00 0.00 0.00 0.00 0.00 0.00 0.00 0.00 0.00 0.00 0.00 0.00 0.00 0.00 0.00 0.00 0.00 0.00 0.00 0.00 0.00 0.00 0.00 0.00 0.00 0.00 0.00 0.00 0.00 0.00 0.00 0.00 0.00
0.00 0.00 0.00 0.00 0.00 0.00 0.00 0.00 0.00 0.00 0.00 0.01 0.03 0.03 0.02 0.01 0.00 0.00 0.00 0.00 0.00 0.00 0.00 0.00 0.00 0.00 0.00 0.00 0.00 0.00 0.00 0.00 0.00 0.00 0.00 0.00 0.00 0.00 0.00 0.00 0.00 0.00 0.00 0.00 0.00 0.00 0.00 0.00 0.00 0.00 0.00 0.00 0.00 0.00
0.00 0.00 0.00 0.00 0.00 0.00 0.00 0.00 0.00 0.00 0.00 0.02 0.02 0.00 0.00 0.00 0.00 0.00 0.00 0.00 0.00 0.00 0.00 0.00 0.00 0.00 0.00 0.00 0.00 0.00 0.00 0.00 0.00 0.00 0.00 0.00 0.00 0.00 0.00 0.00 0.00 0.00 0.00 0.00 0.00 0.00 0.00 0.00 0.00 0.00 0.00 0.00 0.00 0.00
0.00 0.00 0.00 0.00 0.00 0.00 0.00 0.00 0.00 0.00 0.00 0.01 0.00 0.00 0.00 0.00 0.00 0.00 0.00 0.00 0.00 0.00 0.00 0.00 0.00 0.00 0.00 0.00 0.00 0.00 0.00 0.00 0.00 0.00 0.00 0.00 0.00 0.00 0.00 0.00 0.00 0.00 0.00 0.00 0.00 0.00 0.00 0.00 0.00 0.00 0.00 0.00 0.00 0.00
0.00 0.00 0.00 0.00 0.00 0.00 0.00 0.00 0.00 0.00 0.00 0.00 0.00 0.00 0.00 0.00 0.00 0.00 0.00 0.00 0.00 0.00 0.00 0.00 0.00 0.00 0.00 0.00 0.00 0.00 0.00 0.00 0.00 0.00 0.00 0.00 0.00 0.00 0.00 0.00 0.00 0.00 0.00 0.00 0.00 0.00 0.00 0.00 0.00 0.00 0.00 0.00 0.00 0.00
0.00 0.00 0.00 0.00 0.00 0.00 0.00 0.00 0.00 0.00 0.00 0.00 0.00 0.00 0.00 0.00 0.00 0.00 0.00 0.00 0.00 0.00 0.00 0.00 0.00 0.00 0.00 0.00 0.00 0.00 0.00 0.00 0.00 0.00 0.00 0.00 0.00 0.00 0.00 0.00 0.00 0.00 0.00 0.00 0.00 0.00 0.00 0.00 0.00 0.00 0.00 0.00 0.00 0.00
0.00 0.00 0.00 0.00 0.00 0.00 0.00 0.00 0.00 0.00 0.00 0.00 0.00 0.00 0.00 0.00 0.00 0.00 0.00 0.00 0.00 0.00 0.00 0.00 0.00 0.00 0.00 0.00 0.00 0.00 0.00 0.00 0.00 0.00 0.00 0.00 0.00 0.00 0.00 0.00 0.00 0.00 0.00 0.00 0.00 0.00 0.00 0.00 0.00 0.00 0.00 0.00 0.00 0.00
0.00 0.00 0.00 0.00 0.00 0.00 0.00 0.00 0.00 0.01 0.00 0.00 0.00 0.00 0.00 0.00 0.00 0.00 0.00 0.00 0.00 0.00 0.00 0.00 0.00 0.00 0.00 0.00 0.00 0.00 0.00 0.00 0.00 0.00 0.00 0.00 0.00 0.00 0.00 0.00 0.00 0.00 0.00 0.00 0.00 0.00 0.00 0.00 0.00 0.00 0.00 0.00 0.00 0.00
MSLP
1018.75 1018.41 1018.18 1017.75 1017.53 1017.34 1017.13 1016.94 1016.85 1016.71 1016.54 1016.28 1016.06 1015.74 1015.52 1015.45 1015.06 1015.01 1014.59 1014.27 1014.46 1014.53 1013.60 1012.92 1012.58 1012.90 1013.56 1014.11 1014.75 1015.07 1015.73 1016.09 1017.08 1018.59 1019.80 1020.62 1020.46 1020.15 1019.83 1019.47 1019.41 1019.86 1020.37 1020.94 1020.71 1019.62 1017.94 1016.20 1015.63 1015.77 1016.20 1016.08 1016.10 1016.38
1018.25 1017.86 1017.58 1017.27 1017.01 1016.81 1016.67 1016.56 1016.58 1016.47 1016.32 1016.11 1015.92 1015.72 1015.46 1015.53 1015.29 1014.93 1014.97 1014.50 1014.37 1014.48 1013.71 1013.03 1012.30 1011.95 1011.81 1012.29 1013.57 1014.98 1015.76 1016.31 1016.98 1018.55 1019.76 1020.32 1020.71 1020.61 1020.62 1020.21 1019.62 1020.02 1019.78 1019.82 1020.07 1019.06 1017.47 1016.66 1016.24 1015.91 1016.27 1016.25 1016.20 1016.35
1017.71 1017.29 1016.96 1016.66 1016.43 1016.26 1016.10 1016.03 1016.13 1016.13 1016.04 1015.84 1015.70 1015.59 1015.43 1015.44 1015.27 1015.04 1015.03 1014.94 1014.71 1014.65 1013.75 1013.08 1012.28 1011.83 1011.61 1011.80 1012.06 1013.66 1015.46 1015.78 1016.68 1016.98 1018.59 1019.69 1020.17 1020.31 1020.75 1020.24 1019.68 1019.29 1019.18 1019.47 1019.42 1018.23 1017.46 1016.75 1016.30 1016.03 1016.03 1016.11 1016.25 1016.47
1017.09 1016.71 1016.35 1016.05 1015.84 1015.73 1015.67 1015.67 1015.76 1015.81 1015.69 1015.46 1015.33 1015.10 1015.02 1015.18 1015.10 1015.03 1015.14 1014.95 1015.18 1015.14 1014.56 1013.33 1012.26 1012.02 1011.64 1011.69 1012.10 1012.65 1013.88 1015.53 1016.34 1017.13 1018.28 1019.23 1019.75 1019.61 1020.01 1019.65 1019.54 1018.91 1018.93 1019.02 1018.95 1018.04 1017.54 1016.66 1016.29 1016.11 1016.17 1016.27 1016.60 1017.02
1016.58 1016.12 1015.79 1015.52 1015.32 1015.28 1015.31 1015.34 1015.40 1015.51 1015.34 1015.15 1015.17 1014.94 1015.00 1015.13 1014.98 1014.99 1014.97 1014.79 1015.01 1015.34 1014.85 1013.99 1012.91 1012.26 1012.04 1012.05 1012.64 1013.13 1013.99 1015.35 1016.72 1017.80 1018.61 1019.16 1019.12 1019.55 1019.80 1019.70 1019.28 1018.22 1017.86 1018.15 1017.75 1016.91 1016.76 1016.41 1016.02 1016.06 1016.35 1016.52 1016.68 1017.14
1016.12 1015.70 1015.34 1015.03 1014.92 1014.98 1015.12 1015.13 1015.09 1015.14 1014.97 1014.97 1014.97 1014.87 1014.65 1014.63 1014.77 1014.92 1014.88 1014.75 1014.64 1014.78 1014.90 1014.36 1013.48 1012.69 1012.68 1012.90 1013.29 1014.04 1014.67 1015.59 1016.59 1017.50 1018.35 1018.54 1018.36 1018.65 1019.50 1019.56 1017.56 1016.93 1016.80 1016.65 1016.50 1016.28 1016.37 1016.01 1015.89 1015.94 1016.21 1016.55 1016.98 1017.42
1015.66 1015.27 1014.97 1014.73 1014.66 1014.69 1014.82 1014.85 1014.94 1014.88 1014.80 1014.85 1015.05 1014.85 1014.82 1014.61 1014.67 1014.76 1014.74 1014.75 1014.60 1014.82 1014.89 1014.80 1013.96 1013.23 1013.02 1013.50 1014.30 1014.95 1015.33 1016.03 1016.51 1017.59 1018.18 1018.43 1018.59 1018.67 1019.14 1018.79 1016.80 1016.32 1016.33 1016.35 1016.13 1016.16 1016.35 1016.05 1015.90 1015.86 1016.09 1016.46 1016.74 1017.04
1015.45 1015.04 1014.72 1014.51 1014.53 1014.58 1014.66 1014.60 1014.64 1014.76 1014.71 1014.66 1014.97 1014.94 1014.71 1014.33 1014.40 1014.23 1013.85 1013.77 1014.39 1014.84 1014.97 1015.12 1014.54 1013.88 1013.36 1014.31 1015.28 1015.64 1016.11 1016.45 1017.03 1017.64 1018.21 1018.46 1018.77 1018.73 1018.44 1017.02 1016.57 1016.23 1016.14 1016.06 1016.03 1015.87 1015.85 1015.90 1015.95 1016.14 1016.37 1016.64 1016.95 1017.33
1015.42 1014.96 1014.60 1014.46 1014.41 1014.54 1014.57 1014.47 1014.50 1014.66 1014.71 1014.59 1014.70 1014.54 1014.81 1014.28 1014.30 1014.13 1013.86 1013.87 1014.01 1014.97 1015.19 1015.43 1015.02 1014.44 1013.86 1014.83 1015.46 1015.95 1016.29 1017.11 1017.58 1017.82 1018.22 1018.48 1018.80 1018.35 1016.63 1016.31 1016.03 1015.86 1015.79 1015.68 1015.83 1015.96 1016.04 1016.12 1016.32 1016.49 1016.61 1016.82 1017.16 1017.39
1015.65 1015.23 1014.82 1014.56 1014.42 1014.51 1014.59 1014.62 1014.53 1014.40 1014.44 1014.48 1014.74 1014.52 1014.91 1014.28 1013.76 1013.73 1013.99 1014.09 1014.28 1014.72 1015.12 1015.38 1015.03 1014.67 1014.52 1015.34 1015.90 1016.37 1016.53 1017.17 1017.73 1017.96 1018.06 1018.21 1017.89 1016.40 1015.72 1015.52 1015.43 1015.34 1015.44 1015.53 1015.81 1016.10 1016.19 1016.36 1016.55 1016.67 1016.86 1017.02 1017.22 1017.38
1015.86 1015.60 1015.27 1015.09 1014.91 1014.87 1014.79 1014.61 1014.45 1014.35 1014.14 1014.51 1014.61 1014.65 1014.48 1014.00 1013.98 1014.24 1014.49 1014.90 1015.18 1015.33 1015.08 1014.80 1014.81 1014.69 1014.77 1015.19 1015.83 1016.10 1016.53 1017.10 1017.60 1017.89 1018.13 1018.05 1017.55 1015.75 1015.05 1015.00 1014.81 1014.94 1015.14 1015.30 1015.26 1015.47 1015.66 1016.06 1016.44 1016.80 1017.00 1017.12 1017.30 1017.48
1015.80 1015.59 1015.44 1015.26 1015.02 1014.99 1014.79 1014.63 1014.42 1014.24 1014.68 1014.99 1014.64 1014.74 1014.52 1014.24 1014.64 1014.89 1015.05 1015.23 1015.18 1014.84 1014.58 1014.57 1014.59 1014.63 1015.01 1014.95 1015.59 1016.33 1016.56 1017.10 1017.31 1017.46 1017.86 1017.60 1016.09 1015.33 1015.09 1014.80 1014.60 1014.82 1015.04 1015.11 1015.27 1015.50 1015.83 1016.17 1016.45 1016.81 1017.06 1017.25 1017.33 1017.36
1015.64 1015.50 1015.30 1015.08 1014.97 1014.81 1014.74 1014.72 1014.54 1014.58 1014.72 1014.69 1014.70 1014.64 1014.51 1014.88 1014.99 1014.86 1014.75 1014.59 1014.43 1013.85 1014.00 1014.25 1014.74 1014.74 1015.15 1015.30 1015.91 1016.20 1016.64 1017.10 1017.07 1017.46 1017.27 1016.54 1015.73 1015.42 1015.23 1015.08 1014.99 1014.94 1015.10 1015.33 1015.61 1015.77 1016.07 1016.43 1016.79 1017.13 1017.40 1017.49 1017.36 1017.59
1015.48 1015.22 1015.04 1014.99 1014.75 1014.70 1014.67 1014.69 1014.68 1014.76 1014.88 1014.96 1014.92 1015.04 1014.66 1014.42 1014.02 1013.49 1013.42 1013.36 1013.04 1013.24 1013.64 1014.00 1014.54 1014.74 1015.24 1015.74 1016.22 1016.57 1017.04 1017.07 1017.27 1017.28 1016.54 1015.49 1015.34 1015.45 1015.48 1015.41 1015.38 1015.57 1015.71 1015.96 1016.22 1016.41 1016.67 1017.07 1017.48 1017.58 1017.82 1017.97 1018.04 1018.02
1015.16 1014.96 1014.80 1014.50 1014.41 1014.50 1014.46 1014.43 1014.55 1014.87 1014.94 1014.86 1014.81 1014.62 1014.02 1013.16 1012.88 1012.72 1012.81 1013.04 1012.94 1013.08 1013.49 1014.12 1014.59 1014.82 1015.56 1016.09 1016.44 1016.92 1017.25 1017.08 1016.76 1016.10 1015.61 1015.14 1015.33 1015.67 1015.86 1015.95 1016.03 1016.18 1016.44 1016.69 1016.84 1017.13 1017.56 1017.83 1018.08 1018.53 1018.80 1018.81 1018.75 1018.55
1014.96 1014.71 1014.42 1014.36 1014.42 1014.38 1014.29 1014.46 1014.65 1014.87 1014.86 1014.71 1014.45 1013.83 1013.25 1013.26 1012.86 1012.70 1012.59 1012.79 1012.61 1013.09 1013.50 1013.87 1014.64 1015.15 1015.62 1015.89 1016.46 1016.49 1016.81 1016.22 1015.38 1015.21 1014.94 1015.28 1015.66 1015.77 1016.05 1016.28 1016.46 1016.60 1016.86 1017.21 1017.53 1017.84 1018.18 1018.46 1018.76 1019.04 1019.11 1019.00 1018.82 1018.67
1014.85 1014.65 1014.40 1014.42 1014.42 1014.44 1014.31 1014.48 1014.72 1014.73 1014.55 1014.19 1013.54 1012.99 1012.94 1012.79 1012.66 1012.30 1012.12 1012.16 1012.37 1012.88 1013.54 1013.91 1014.54 1014.98 1015.59 1015.72 1015.89 1015.78 1015.33 1014.57 1014.29 1014.47 1014.82 1015.16 1015.49 1015.75 1016.04 1016.27 1016.54 1016.82 1017.24 1017.62 1018.01 1018.33 1018.65 1018.90 1019.01 1019.21 1019.32 1019.30 1019.02 1018.74
1014.74 1014.55 1014.59 1014.55 1014.45 1014.37 1014.47 1014.54 1014.40 1014.30 1014.01 1013.19 1013.09 1012.40 1012.28 1012.04 1011.97 1011.76 1011.66 1011.92 1012.36 1012.61 1012.99 1013.14 1013.66 1014.50 1014.79 1014.76 1014.55 1013.66 1013.57 1013.66 1014.02 1014.23 1014.57 1015.02 1015.31 1015.71 1015.98 1016.49 1016.85 1017.12 1017.52 1017.92 1018.23 1018.62 1018.91 1019.12 1019.33 1019.46 1019.42 1019.36 1019.18 1018.85
1014.59 1014.69 1014.67 1014.63 1014.59 1014.61 1014.47 1014.24 1014.19 1013.78 1012.93 1012.47 1012.07 1011.83 1011.65 1011.37 1011.03 1011.00 1011.26 1011.52 1011.82 1011.95 1012.42 1012.89 1013.36 1013.65 1013.39 1012.85 1012.35 1012.53 1012.77 1013.18 1013.68 1014.20 1014.68 1014.92 1015.32 1015.78 1016.24 1016.66 1017.00 1017.41 1017.85 1018.23 1018.55 1018.82 1019.05 1019.12 1019.20 1019.32 1019.39 1019.48 1019.43 1018.92
1014.37 1014.34 1014.37 1014.52 1014.63 1014.59 1014.31 1013.68 1013.37 1013.30 1012.65 1011.77 1011.52 1011.36 1011.19 1010.88 1010.65 1010.82 1011.18 1011.53 1011.82 1012.11 1012.56 1012.61 1012.20 1011.51 1011.33 1010.80 1011.01 1011.34 1011.75 1012.31 1012.90 1014.06 1014.88 1015.30 1015.43 1015.85 1016.34 1016.79 1017.20 1017.62 1018.10 1018.55 1018.83 1019.03 1019.20 1019.32 1019.28 1019.27 1019.33 1019.38 1019.24 1018.73
1014.13 1014.03 1014.11 1014.39 1014.56 1014.55 1014.36 1013.55 1013.05 1012.38 1011.83 1011.59 1010.87 1010.82 1010.67 1010.62 1010.68 1010.89 1011.24 1011.37 1011.93 1011.97 1011.65 1010.89 1010.45 1010.07 1010.03 1010.21 1010.37 1010.77 1011.27 1011.59 1012.26 1012.91 1013.83 1014.96 1015.59 1015.94 1016.49 1016.91 1017.35 1017.73 1018.09 1018.53 1018.79 1019.05 1019.13 1019.20 1019.19 1019.14 1019.04 1018.95 1018.84 1018.56
1014.02 1013.93 1014.25 1014.40 1014.39 1014.31 1014.14 1013.12 1012.75 1012.09 1011.85 1011.01 1010.74 1010.35 1010.40 1010.44 1010.50 1010.56 1010.74 1011.06 1010.95 1010.21 1009.87 1009.71 1009.63 1009.66 1009.94 1010.07 1010.29 1010.34 1010.66 1011.40 1012.12 1012.69 1013.31 1014.11 1015.31 1016.06 1016.46 1016.64 1017.15 1017.71 1018.09 1018.28 1018.41 1018.64 1018.86 1018.93 1018.98 1018.89 1018.89 1018.73 1018.57 1018.40
1013.94 1013.96 1013.97 1014.08 1014.06 1013.64 1012.91 1012.35 1012.30 1011.57 1011.46 1010.58 1010.14 1009.98 1009.91 1009.97 1010.01 1010.18 1010.34 1010.03 1009.39 1008.66 1008.56 1008.92 1009.10 1009.23 1009.55 1009.85 1010.10 1010.52 1010.94 1011.28 1012.09 1012.64 1013.19 1013.63 1014.26 1014.93 1015.65 1016.41 1016.80 1017.27 1017.82 1018.08 1018.12 1018.23 1018.40 1018.41 1018.51 1018.66 1018.66 1018.60 1018.48 1018.27
1013.89 1013.73 1013.61 1013.44 1013.28 1012.61 1011.96 1011.81 1011.38 1010.91 1010.38 1010.08 1009.72 1009.36 1009.37 1009.43 1009.69 1009.80 1009.75 1009.09 1008.34 1008.17 1008.42 1008.70 1009.03 1009.51 1009.91 1010.15 1010.45 1010.75 1010.91 1011.39 1012.00 1012.60 1013.07 1013.63 1014.56 1015.15 1015.25 1015.55 1016.02 1016.30 1016.69 1016.99 1017.59 1017.85 1017.91 1018.04 1018.15 1018.28 1018.33 1018.33 1018.24 1018.20
1013.85 1013.53 1013.48 1013.03 1012.50 1012.00 1011.08 1010.55 1010.29 1010.12 1009.59 1009.16 1009.06 1009.00 1008.79 1009.04 1009.29 1009.26 1008.99 1008.19 1007.74 1007.91 1008.09 1008.51 1008.79 1008.75 1009.37 1009.96 1010.36 1010.38 1010.51 1010.85 1011.86 1012.72 1013.11 1013.09 1013.71 1014.77 1015.31 1015.55 1015.73 1015.93 1016.26 1016.59 1017.07 1017.28 1017.40 1017.56 1017.70 1017.80 1017.84 1017.91 1017.87 1017.79
1013.34 1012.71 1012.69 1012.17 1011.75 1011.37 1010.29 1009.51 1009.11 1008.92 1008.93 1008.58 1008.24 1008.44 1008.71 1008.80 1008.82 1008.49 1007.97 1007.30 1007.36 1007.50 1007.70 1007.86 1008.24 1008.86 1009.40 1009.41 1010.04 1010.56 1010.46 1010.81 1011.34 1011.84 1012.58 1012.81 1013.05 1013.47 1014.33 1015.15 1015.59 1015.69 1015.82 1015.86 1016.27 1016.62 1016.76 1017.04 1017.18 1017.26 1017.33 1017.35 1017.38 1017.49
1012.68 1012.05 1011.87 1011.37 1011.11 1010.56 1009.80 1008.82 1008.49 1008.63 1008.43 1007.93 1007.96 1007.91 1008.09 1008.16 1007.76 1007.17 1006.66 1006.61 1006.74 1006.65 1006.79 1007.16 1007.59 1008.13 1008.62 1009.28 1009.73 1009.95 1010.15 1010.63 1010.87 1010.90 1011.06 1011.86 1012.24 1012.37 1012.71 1013.51 1014.26 1013.99 1014.46 1015.09 1015.59 1015.82 1016.03 1016.34 1016.61 1016.77 1016.84 1016.92 1016.99 1017.11
1012.05 1011.64 1011.40 1010.95 1010.69 1010.00 1009.61 1008.85 1008.34 1007.81 1007.19 1007.15 1007.23 1007.30 1007.26 1007.16 1006.93 1006.31 1005.97 1005.82 1005.95 1006.17 1006.60 1007.07 1007.39 1007.79 1008.31 1008.66 1009.09 1009.71 1010.50 1010.87 1011.15 1011.46 1011.80 1012.24 1012.37 1012.44 1012.61 1012.71 1012.86 1013.23 1013.63 1014.09 1014.58 1015.05 1015.43 1015.73 1015.94 1016.15 1016.36 1016.52 1016.57 1016.65
1011.48 1010.95 1010.79 1010.44 1010.04 1009.50 1008.89 1008.30 1007.57 1006.87 1006.48 1006.76 1006.80 1006.64 1006.59 1006.34 1006.29 1006.22 1005.94 1006.09 1006.07 1006.16 1006.78 1007.20 1007.61 1007.78 1008.17 1008.53 1008.91 1009.26 1009.56 1010.08 1010.77 1011.30 1011.53 1011.89 1012.38 1012.30 1012.17 1012.43 1012.73 1013.05 1013.26 1013.58 1014.05 1014.33 1014.73 1015.11 1015.32 1015.44 1015.68 1016.01 1016.14 1016.30
1010.69 1010.24 1010.22 1009.75 1009.35 1008.59 1007.49 1006.92 1006.58 1006.08 1006.16 1006.33 1006.32 1006.29 1006.26 1006.51 1006.68 1006.37 1006.29 1006.37 1006.57 1006.50 1006.45 1006.65 1006.88 1007.35 1007.80 1008.29 1008.84 1009.45 1009.51 1009.51 1009.25 1009.74 1010.40 1010.79 1011.13 1011.18 1011.63 1012.03 1012.39 1012.73 1013.13 1013.31 1013.76 1014.38 1014.67 1014.98 1015.31 1015.49 1015.76 1015.99 1016.11 1016.23
1009.67 1009.73 1009.60 1009.11 1008.41 1007.18 1006.52 1006.30 1006.05 1005.93 1006.13 1006.41 1006.61 1006.64 1006.68 1006.71 1006.58 1006.43 1006.31 1006.23 1006.31 1006.51 1006.86 1007.22 1007.36 1007.52 1007.62 1007.96 1008.29 1008.71 1009.17 1009.22 1009.16 1009.14 1009.21 1009.63 1010.23 1010.90 1011.29 1011.61 1011.97 1012.43 1012.88 1013.15 1013.45 1013.85 1014.31 1014.73 1015.07 1015.32 1015.53 1015.68 1015.77 1015.92
1008.98 1008.99 1008.91 1008.48 1007.52 1006.40 1006.11 1006.02 1006.00 1006.15 1006.44 1006.62 1006.89 1006.77 1006.80 1006.76 1006.91 1006.67 1006.60 1006.29 1006.34 1006.40 1006.37 1006.89 1007.31 1007.61 1007.75 1007.73 1008.07 1008.16 1007.89 1008.17 1008.89 1009.18 1009.48 1009.81 1010.15 1010.50 1010.88 1011.31 1011.82 1012.35 1012.75 1013.02 1013.31 1013.68 1014.07 1014.36 1014.69 1014.94 1015.11 1015.23 1015.30 1015.38
1008.17 1008.23 1008.20 1008.11 1007.21 1006.31 1006.08 1006.06 1006.09 1006.51 1006.71 1007.05 1007.24 1007.27 1007.29 1007.37 1007.38 1007.40 1007.13 1006.95 1006.88 1007.02 1006.67 1006.36 1006.70 1006.74 1007.36 1008.28 1008.15 1008.08 1008.09 1008.16 1008.43 1008.58 1008.79 1009.18 1009.60 1010.12 1010.61 1011.04 1011.51 1011.98 1012.39 1012.68 1012.95 1013.30 1013.69 1013.99 1014.23 1014.45 1014.58 1014.63 1014.64 1014.65
Thickness
5619 5619 5617 5616 5614 5612 5610 5607 5605 5603 5601 5600 5600 5602 5603 5603 5607 5608 5616 5620 5623 5620 5627 5637 5640 5627 5620 5614 5609 5613 5608 5607 5594 5587 5578 5553 5562 5575 5576 5592 5595 5589 5569 5551 5572 5580 5590 5625 5631 5631 5626 5634 5641 5643
5613 5614 5614 5613 5611 5609 5607 5604 5601 5600 5598 5597 5597 5597 5598 5597 5599 5603 5611 5616 5620 5622 5628 5635 5642 5646 5645 5639 5619 5609 5611 5606 5602 5587 5579 5568 5568 5572 5567 5563 5589 5578 5588 5579 5583 5584 5604 5612 5619 5625 5620 5624 5631 5634
5606 5608 5610 5610 5609 5606 5605 5602 5599 5597 5596 5594 5594 5593 5594 5592 5593 5597 5606 5609 5615 5616 5625 5630 5637 5645 5647 5645 5645 5620 5609 5612 5607 5605 5588 5583 5593 5573 5576 5575 5591 5595 5588 5587 5589 5603 5606 5613 5617 5620 5622 5623 5623 5624
5599 5602 5605 5606 5605 5603 5601 5599 5597 5594 5593 5594 5593 5595 5595 5591 5590 5594 5602 5606 5607 5607 5612 5624 5638 5641 5646 5645 5643 5639 5628 5614 5606 5601 5591 5586 5591 5586 5580 5588 5584 5591 5592 5587 5588 5598 5603 5609 5612 5615 5616 5614 5613 5612
5592 5596 5600 5601 5600 5598 5596 5595 5593 5591 5591 5591 5590 5592 5590 5587 5588 5594 5599 5604 5605 5608 5606 5613 5627 5637 5639 5640 5635 5632 5625 5616 5606 5601 5594 5593 5581 5585 5571 5577 5579 5591 5593 5583 5583 5602 5601 5603 5610 5611 5606 5605 5604 5602
5584 5588 5591 5594 5595 5593 5590 5589 5588 5587 5588 5588 5587 5588 5590 5591 5590 5594 5597 5602 5605 5605 5606 5610 5620 5631 5632 5630 5627 5623 5618 5609 5602 5600 5593 5586 5589 5589 5579 5559 5596 5600 5597 5600 5602 5602 5599 5605 5606 5605 5601 5598 5595 5590
5577 5580 5583 5586 5588 5587 5586 5584 5582 5582 5584 5584 5581 5583 5584 5589 5590 5593 5596 5600 5602 5602 5602 5604 5608 5622 5627 5622 5615 5612 5608 5603 5603 5590 5591 5588 5585 5578 5567 5557 5601 5600 5598 5596 5599 5595 5595 5596 5595 5596 5595 5592 5590 5586
5567 5571 5574 5578 5580 5579 5578 5579 5578 5577 5579 5580 5577 5577 5581 5587 5589 5592 5597 5601 5599 5596 5596 5594 5603 5611 5621 5608 5606 5599 5600 5597 5592 5587 5579 5584 5575 5569 5568 5587 5591 5595 5594 5593 5589 5589 5588 5587 5585 5583 5580 5577 5576 5572
5554 5560 5565 5570 5572 5570 5570 5572 5572 5573 5572 5574 5574 5576 5574 5581 5583 5586 5590 5592 5593 5591 5589 5590 5593 5596 5609 5598 5597 5596 5591 5588 5581 5584 5577 5577 5563 5563 5587 5590 5592 5590 5588 5588 5582 5577 5575 5575 5571 5567 5566 5564 5562 5559
5543 5549 5557 5561 5564 5563 5563 5564 5566 5569 5568 5569 5568 5573 5570 5576 5582 5584 5583 5581 5581 5581 5583 5587 5589 5597 5600 5591 5589 5591 5588 5584 5580 5577 5571 5570 5563 5578 5583 5587 5587 5587 5581 5577 5572 5568 5565 5561 5557 5556 5552 5550 5548 5547
5534 5541 5547 5550 5552 5554 5555 5558 5561 5562 5566 5565 5567 5570 5567 5573 5575 5574 5573 5571 5568 5575 5578 5585 5588 5594 5594 5592 5587 5587 5584 5577 5572 5573 5573 5560 5568 5582 5589 5586 5584 5579 5576 5571 5570 5565 5561 5555 5548 5543 5541 5540 5538 5535
5532 5536 5539 5541 5545 5547 5550 5552 5555 5559 5556 5556 5562 5559 5562 5566 5561 5565 5561 5562 5566 5573 5581 5585 5588 5589 5588 5586 5586 5579 5578 5571 5572 5569 5570 5563 5574 5581 5581 5580 5580 5572 5569 5567 5561 5558 5552 5547 5541 5535 5532 5529 5526 5524
5528 5532 5534 5537 5540 5544 5546 5546 5550 5551 5552 5554 5556 5560 5562 5556 5550 5557 5561 5563 5566 5577 5582 5583 5583 5584 5581 5578 5577 5575 5572 5567 5564 5565 5563 5560 5573 5574 5571 5570 5570 5566 5562 5557 5552 5549 5544 5538 5533 5527 5521 5517 5514 5509
5525 5529 5531 5533 5538 5540 5542 5542 5543 5545 5548 5553 5553 5538 5553 5554 5557 5564 5565 5569 5577 5580 5581 5581 5581 5582 5575 5576 5569 5569 5560 5561 5560 5559 5563 5573 5570 5567 5561 5560 5558 5553 5549 5544 5539 5535 5531 5525 5516 5510 5502 5498 5496 5493
5522 5526 5529 5534 5537 5537 5539 5541 5541 5542 5544 5551 5550 5544 5555 5565 5566 5569 5570 5571 5577 5578 5579 5578 5575 5577 5570 5568 5560 5557 5557 5561 5562 5568 5568 5565 5561 5555 5552 5548 5544 5539 5534 5530 5526 5520 5513 5506 5499 5491 5485 5480 5477 5475
5519 5523 5528 5531 5533 5535 5537 5537 5538 5537 5539 5543 5546 5556 5560 5563 5566 5568 5571 5573 5576 5574 5573 5574 5572 5573 5570 5561 5562 5560 5557 5558 5568 5563 5562 5555 5550 5549 5544 5538 5533 5528 5524 5517 5511 5505 5497 5491 5484 5477 5472 5468 5466 5463
5516 5520 5524 5526 5528 5530 5533 5534 5534 5537 5542 5550 5552 5554 5559 5564 5566 5570 5573 5577 5575 5577 5574 5569 5572 5569 5555 5560 5562 5557 5562 5569 5565 5562 5557 5551 5547 5543 5537 5532 5527 5522 5514 5507 5500 5493 5486 5480 5475 5468 5463 5456 5453 5450
5515 5517 5519 5521 5523 5525 5527 5528 5536 5541 5544 5550 5553 5561 5560 5566 5569 5574 5575 5574 5576 5575 5573 5575 5566 5567 5565 5563 5562 5574 5569 5567 5561 5560 5555 5550 5544 5536 5533 5525 5520 5514 5507 5500 5493 5486 5480 5472 5464 5457 5452 5446 5441 5438
5512 5512 5514 5516 5518 5519 5525 5531 5532 5541 5548 5555 5556 5557 5564 5569 5570 5573 5573 5572 5572 5572 5570 5570 5570 5568 5568 5569 5583 5577 5569 5567 5561 5556 5551 5545 5536 5531 5525 5520 5513 5505 5498 5491 5485 5478 5472 5466 5459 5451 5443 5434 5429 5429
5509 5511 5512 5512 5513 5517 5525 5534 5534 5535 5544 5554 5553 5559 5564 5569 5570 5571 5568 5567 5568 5569 5571 5573 5576 5581 5583 5590 5588 5586 5576 5569 5567 5555 5545 5535 5532 5526 5520 5512 5505 5498 5490 5483 5478 5472 5466 5460 5451 5443 5434 5427 5423 5424
5508 5510 5511 5510 5511 5513 5518 5526 5533 5540 5547 5550 5559 5561 5566 5565 5568 5569 5568 5563 5566 5568 5573 5578 5584 5591 5592 5588 5584 5579 5577 5576 5571 5562 5553 5536 5525 5521 5512 5506 5499 5492 5487 5480 5475 5468 5463 5456 5447 5439 5432 5427 5423 5420
5506 5508 5507 5507 5510 5513 5511 5522 5528 5535 5539 5551 5554 5560 5565 5566 5568 5568 5564 5570 5571 5579 5581 5585 5589 5589 5586 5586 5582 5582 5580 5569 5559 5552 5545 5538 5523 5515 5508 5504 5498 5490 5484 5480 5476 5469 5461 5452 5444 5439 5433 5428 5424 5421
5504 5505 5507 5508 5514 5516 5523 5526 5534 5541 5546 5554 5558 5564 5566 5567 5568 5566 5570 5573 5580 5587 5589 5588 5589 5588 5586 5581 5578 5574 5571 5568 5559 5551 5545 5539 5530 5521 5511 5502 5497 5491 5483 5478 5474 5469 5463 5455 5447 5440 5435 5429 5425 5422
5502 5506 5512 5517 5517 5521 5532 5533 5534 5543 5550 5554 5560 5573 5570 5569 5569 5570 5573 5580 5586 5589 5588 5586 5582 5580 5576 5576 5573 5569 5566 5562 5556 5545 5540 5535 5524 5514 5512 5508 5501 5497 5492 5486 5476 5469 5464 5458 5450 5443 5437 5432 5428 5424
5502 5504 5502 5499 5519 5531 5541 5544 5545 5547 5555 5563 5570 5571 5574 5570 5570 5572 5577 5584 5587 5586 5587 5583 5584 5588 5582 5574 5572 5574 5568 5565 5553 5542 5533 5535 5525 5512 5506 5503 5500 5496 5491 5487 5480 5474 5468 5461 5455 5448 5442 5437 5433 5429
5496 5516 5510 5524 5529 5531 5544 5554 5558 5561 5562 5569 5573 5573 5570 5570 5571 5574 5582 5590 5589 5589 5588 5590 5587 5579 5576 5578 5570 5564 5563 5555 5551 5546 5535 5532 5530 5525 5515 5504 5498 5495 5491 5489 5484 5479 5474 5466 5461 5455 5448 5444 5438 5434
5510 5523 5519 5520 5527 5539 5548 5559 5563 5561 5566 5574 5573 5575 5573 5576 5581 5589 5595 5593 5596 5596 5595 5594 5591 5588 5584 5572 5566 5563 5558 5552 5552 5551 5544 5534 5531 5528 5524 5513 5502 5507 5499 5492 5487 5484 5481 5475 5467 5461 5455 5449 5444 5439
5512 5519 5525 5532 5531 5541 5548 5556 5562 5566 5576 5578 5579 5581 5585 5586 5589 5597 5600 5601 5599 5595 5593 5587 5584 5581 5576 5572 5567 5559 5548 5543 5539 5535 5530 5526 5524 5522 5518 5516 5513 5506 5503 5497 5492 5487 5482 5478 5473 5467 5461 5455 5450 5445
5515 5523 5527 5534 5540 5544 5550 5560 5568 5576 5582 5581 5584 5584 5588 5593 5594 5595 5597 5593 5592 5592 5586 5580 5576 5573 5570 5565 5561 5557 5552 5548 5540 5534 5532 5527 5521 5521 5517 5513 5510 5505 5502 5498 5491 5489 5485 5480 5477 5472 5467 5461 5456 5452
5523 5526 5532 5541 5546 5553 5563 5569 5576 5585 5584 5584 5586 5587 5589 5587 5585 5587 5588 5587 5586 5587 5586 5582 5577 5572 5567 5562 5552 5545 5543 5545 5549 5543 5534 5527 5526 5524 5517 5513 5509 5504 5499 5497 5492 5485 5479 5476 5472 5469 5465 5461 5458 5455
5532 5532 5539 5545 5552 5563 5571 5576 5581 5584 5583 5581 5578 5582 5583 5583 5584 5585 5586 5585 5583 5578 5574 5567 5561 5559 5557 5552 5550 5543 5537 5537 5537 5539 5538 5534 5527 5519 5514 5512 5507 5502 5498 5495 5491 5486 5480 5475 5470 5467 5464 5462 5460 5456
5537 5542 5545 5552 5559 5571 5576 5578 5579 5579 5578 5578 5576 5577 5577 5578 5577 5578 5576 5577 5575 5573 5569 5563 5557 5552 5549 5546 5541 5538 5542 5539 5531 5529 5528 5526 5522 5517 5513 5509 5504 5499 5495 5491 5487 5483 5478 5474 5469 5466 5463 5462 5460 5458
5549 5549 5551 5557 5564 5575 5578 5578 5579 5575 5574 5573 5571 5570 5568 5566 5566 5563 5564 5564 5562 5560 5560 5560 5555 5551 5541 5532 5534 5533 5530 5530 5530 5528 5527 5524 5519 5514 5511 5507 5502 5498 5494 5490 5485 5481 5475 5471 5468 5465 5462 5461 5460 5459